Date String (YYYY-MM-DD hh:mm:ss) UTC,Instrument flags,absolute air pressure of the measurement (hPa),sample flow rate (lpm),inlet stack bypass flow (lpm),air temperature of the measurement (°C),ambient temperature measured by the external sensor (°C),aerosol sample conditioner tube jacket temperature (°C),OPC LED temperature (°C),internal box temperature (°C),relative humidity of the measurement (%),span deviation,mass concentration of particles derived from Lorenz-Mie calculation of OPC scattering (μg/m³),mass concentration of particles derived from Lorenz-Mie calculation of OPC scattering (μg/m³),mass concentration of particles derived from Lorenz-Mie calculation of OPC scattering (μg/m³)
DateTimeUTC,F1_M11,P_M11,Q1_M11,Q2_M11,T1_M11,T2_M11,T3_M11,T4_M11,T5_M11,U1_M11,ZSPAN_M11,X2_M11,X0_M11,X1_M11
2024-03-20 03:00:00,SystemResetWarning,0827.4,5.01,000.00,025.0,024.0,000.0,033.8,026.9,13.6,0000.0,0003.47,0008.94,0002.05
2024-03-20 03:01:00,SystemResetWarning,0827.4,5.02,000.00,025.0,024.0,000.0,033.8,026.9,13.6,0000.0,0003.46,0008.90,0002.06
2024-03-20 03:02:00,SystemResetWarning,0827.3,5.01,000.00,025.0,024.0,000.0,033.8,026.9,13.6,0000.0,0003.44,0008.85,0002.05
2024-03-20 03:03:00,SystemResetWarning,0827.4,4.99,000.00,025.0,024.0,000.0,033.8,026.9,13.6,0000.0,0003.42,0008.48,0002.05
2024-03-20 03:04:00,SystemResetWarning,0827.4,4.99,000.00,025.0,024.0,000.0,033.7,026.9,13.6,0000.0,0003.44,0008.69,0002.05
2024-03-20 03:05:00,SystemResetWarning,0827.4,5.01,000.00,025.0,024.0,000.0,033.7,026.9,13.5,0000.0,0003.40,0008.46,0002.05
2024-03-20 03:06:00,SystemResetWarning,0827.4,5.01,000.00,025.0,024.0,000.0,033.7,026.8,13.6,0000.0,0003.37,0008.35,0002.06
2024-03-20 03:07:00,SystemResetWarning,0827.4,5.00,000.00,025.0,024.0,000.0,033.7,026.8,13.5,0000.0,0003.32,0008.38,0002.05
2024-03-20 03:08:00,SystemResetWarning,0827.4,4.98,000.00,025.0,024.0,000.0,033.7,026.8,13.4,0000.0,0003.26,0008.24,0002.04
2024-03-20 03:09:00,SystemResetWarning,0827.4,5.00,000.00,024.9,023.9,000.0,033.7,026.8,13.5,0000.0,0003.25,0007.98,0002.05
2024-03-20 03:10:00,SystemResetWarning,0827.4,5.02,000.00,024.9,023.9,000.0,033.7,026.8,13.4,0000.0,0003.26,0008.23,0002.05
2024-03-20 03:11:00,SystemResetWarning,0827.4,5.00,000.00,024.9,023.9,000.0,033.7,026.8,13.4,0000.0,0003.22,0008.59,0002.05
2024-03-20 03:12:00,SystemResetWarning,0827.4,4.99,000.00,024.9,023.9,000.0,033.6,026.8,13.4,0000.0,0003.23,0008.44,0002.04
2024-03-20 03:13:00,SystemResetWarning,0827.4,5.00,000.00,024.9,023.9,000.0,033.6,026.8,13.5,0000.0,0003.30,0008.76,0002.04
2024-03-20 03:14:00,SystemResetWarning,0827.4,5.00,000.00,024.9,023.9,000.0,033.6,026.7,13.4,0000.0,0003.34,0009.12,0002.06
2024-03-20 03:15:00,SystemResetWarning,0827.4,5.01,000.00,024.9,023.9,000.0,033.6,026.7,13.4,0000.0,0003.32,0008.86,0002.04
2024-03-20 03:16:00,SystemResetWarning,0827.4,5.01,000.00,024.9,023.8,000.0,033.6,026.7,13.4,0000.0,0003.33,0008.85,0002.04
2024-03-20 03:17:00,SystemResetWarning,0827.4,5.00,000.00,024.8,023.8,000.0,033.6,026.7,13.4,0000.0,0003.34,0008.89,0002.03
2024-03-20 03:18:00,SystemResetWarning,0827.4,5.01,000.00,024.8,023.8,000.0,033.6,026.7,13.4,0000.0,0003.37,0008.80,0002.01
2024-03-20 03:19:00,SystemResetWarning,0827.4,5.00,000.00,024.8,023.8,000.0,033.6,026.7,13.4,0000.0,0003.40,0008.95,0002.01
2024-03-20 03:20:00,SystemResetWarning,0827.4,5.01,000.00,024.8,023.8,000.0,033.6,026.7,13.5,0000.0,0003.37,0009.36,0002.00
2024-03-20 03:21:00,SystemResetWarning,0827.4,5.00,000.00,024.8,023.8,000.0,033.5,026.6,13.5,0000.0,0003.30,0009.01,0001.99
2024-03-20 03:22:00,SystemResetWarning,0827.3,5.00,000.00,024.8,023.8,000.0,033.5,026.6,13.5,0000.0,0003.30,0008.49,0001.98
2024-03-20 03:23:00,SystemResetWarning,0827.4,5.01,000.00,024.8,023.7,000.0,033.5,026.6,13.5,0000.0,0003.26,0008.55,0001.98
2024-03-20 03:24:00,SystemResetWarning,0827.4,5.00,000.00,024.7,023.7,000.0,033.5,026.6,13.5,0000.0,0003.18,0008.42,0001.97
2024-03-20 03:25:00,SystemResetWarning,0827.4,5.00,000.00,024.7,023.7,000.0,033.5,026.6,13.5,0000.0,0003.13,0008.08,0001.94
2024-03-20 03:26:00,SystemResetWarning,0827.4,5.00,000.00,024.7,023.7,000.0,033.5,026.6,13.5,0000.0,0003.12,0008.11,0001.94
2024-03-20 03:27:00,SystemResetWarning,0827.4,4.99,000.00,024.7,023.7,000.0,033.5,026.6,13.4,0000.0,0003.12,0008.45,0001.93
2024-03-20 03:28:00,SystemResetWarning,0827.4,5.00,000.00,024.7,023.7,000.0,033.4,026.6,13.4,0000.0,0003.13,0008.95,0001.93
2024-03-20 03:29:00,SystemResetWarning,0827.4,4.99,000.00,024.7,023.7,000.0,033.4,026.6,13.3,0000.0,0003.13,0009.07,0001.92
2024-03-20 03:30:00,SystemResetWarning,0827.4,5.00,000.00,024.7,023.7,000.0,033.4,026.6,13.4,0000.0,0003.12,0008.98,0001.93
2024-03-20 03:31:00,SystemResetWarning,0827.4,5.01,000.00,024.7,023.6,000.0,033.4,026.5,13.5,0000.0,0003.16,0008.64,0001.92
2024-03-20 03:32:00,SystemResetWarning,0827.4,5.01,000.00,024.6,023.6,000.0,033.4,026.5,13.5,0000.0,0003.17,0009.25,0001.92
2024-03-20 03:33:00,SystemResetWarning,0827.4,5.00,000.00,024.6,023.6,000.0,033.4,026.5,13.5,0000.0,0003.13,0009.21,0001.92
2024-03-20 03:34:00,SystemResetWarning,0827.4,5.00,000.00,024.6,023.6,000.0,033.4,026.5,13.5,0000.0,0003.15,0009.80,0001.91
2024-03-20 03:35:00,SystemResetWarning,0827.4,5.00,000.00,024.6,023.6,000.0,033.4,026.5,13.5,0000.0,0003.12,0009.89,0001.89
2024-03-20 03:36:00,SystemResetWarning,0827.4,5.00,000.00,024.6,023.6,000.0,033.3,026.5,13.4,0000.0,0003.10,0010.13,0001.86
2024-03-20 03:37:00,SystemResetWarning,0827.4,5.00,000.00,024.6,023.6,000.0,033.3,026.5,13.4,0000.0,0003.11,0010.10,0001.85
2024-03-20 03:38:00,SystemResetWarning,0827.4,4.99,000.00,024.6,023.5,000.0,033.3,026.5,13.5,0000.0,0003.14,0010.44,0001.84
2024-03-20 03:39:00,SystemResetWarning,0827.4,4.99,000.00,024.6,023.5,000.0,033.3,026.5,13.4,0000.0,0003.12,0010.55,0001.83
2024-03-20 03:40:00,SystemResetWarning,0827.4,5.00,000.00,024.6,023.5,000.0,033.3,026.5,13.4,0000.0,0003.12,0010.95,0001.83
2024-03-20 03:41:00,SystemResetWarning,0827.4,5.01,000.00,024.5,023.5,000.0,033.3,026.4,13.4,0000.0,0003.13,0011.03,0001.82
2024-03-20 03:42:00,SystemResetWarning,0827.4,5.00,000.00,024.5,023.5,000.0,033.3,026.4,13.4,0000.0,0003.12,0011.01,0001.81
2024-03-20 03:43:00,SystemResetWarning,0827.4,5.00,000.00,024.5,023.5,000.0,033.3,026.4,13.3,0000.0,0003.11,0010.55,0001.82
2024-03-20 03:44:00,SystemResetWarning,0827.4,5.01,000.00,024.5,023.5,000.0,033.3,026.3,13.3,0000.0,0003.11,0010.30,0001.79
2024-03-20 03:45:00,SystemResetWarning,0827.5,5.00,000.00,024.5,023.5,000.0,033.2,026.4,13.3,0000.0,0003.09,0009.89,0001.77
2024-03-20 03:46:00,SystemResetWarning,0827.6,4.99,000.00,024.5,023.4,000.0,033.2,026.3,13.3,0000.0,0003.15,0009.86,0001.78
2024-03-20 03:47:00,SystemResetWarning,0827.4,5.00,000.00,024.4,023.4,000.0,033.2,026.3,13.2,0000.0,0003.15,0009.57,0001.78
2024-03-20 03:48:00,SystemResetWarning,0827.5,4.99,000.00,024.4,023.4,000.0,033.2,026.3,13.2,0000.0,0003.15,0010.02,0001.77
2024-03-20 03:49:00,SystemResetWarning,0827.4,5.01,000.00,024.4,023.4,000.0,033.2,026.3,13.1,0000.0,0003.12,0009.44,0001.76
2024-03-20 03:50:00,SystemResetWarning,0827.5,5.00,000.00,024.4,023.4,000.0,033.2,026.3,13.1,0000.0,0003.10,0008.55,0001.76
2024-03-20 03:51:00,SystemResetWarning,0827.4,5.00,000.00,024.4,023.4,000.0,033.2,026.3,13.2,0000.0,0003.07,0008.24,0001.75
2024-03-20 03:52:00,SystemResetWarning,0827.6,5.00,000.00,024.4,023.3,000.0,033.1,026.3,13.2,0000.0,0003.04,0008.80,0001.75
2024-03-20 03:53:00,SystemResetWarning,0827.5,5.00,000.00,024.4,023.3,000.0,033.1,026.2,13.1,0000.0,0003.05,0009.27,0001.75
2024-03-20 03:54:00,SystemResetWarning,0827.6,5.00,000.00,024.3,023.3,000.0,033.1,026.2,13.0,0000.0,0003.01,0009.36,0001.72
2024-03-20 03:55:00,SystemResetWarning,0827.7,5.00,000.00,024.3,023.3,000.0,033.1,026.2,12.9,0000.0,0002.94,0009.22,0001.72
2024-03-20 03:56:00,SystemResetWarning,0827.8,5.00,000.00,024.3,023.3,000.0,033.1,026.2,12.9,0000.0,0002.89,0009.12,0001.72
2024-03-20 03:57:00,SystemResetWarning,0827.7,5.00,000.00,024.3,023.3,000.0,033.1,026.2,12.9,0000.0,0002.78,0009.07,0001.72
2024-03-20 03:58:00,SystemResetWarning,0827.8,5.00,000.00,024.3,023.3,000.0,033.1,026.2,12.9,0000.0,0002.69,0009.01,0001.68
2024-03-20 03:59:00,SystemResetWarning,0827.6,5.01,000.00,024.3,023.2,000.0,033.0,026.2,12.9,0000.0,0002.70,0008.89,0001.68
